Regional Weather Roundup
Issued by NWS Newport/Morehead, NC

Current Version | Previous Version | Graphics & Text | Print | Product List | Glossary Off
Versions: 1 2 3 4 5 6 7 8 9 10 11 12 13 14 15 16 17 18 19 20 21 22 23 24 25 26 27 28 29 30 31 32 33 34 35 36 37 38 39 40 41 42 43 44 45 46 47 48 49 50
999 ASUS42 KMHX 300913 RWRMHX WEATHER ROUNDUP FOR EASTERN NORTH CAROLINA NATIONAL WEATHER SERVICE NEWPORT/MOREHEAD CITY NC 500 AM EDT MON MAY 30 2016 NOTE: "FAIR" INDICATES FEW OR NO CLOUDS BELOW 12,000 FEET WITH NO SIGNIFICANT WEATHER AND/OR OBSTRUCTIONS TO VISIBILITY NCZ015>017-031-032-045>047-102-103-301000- NORTH COAST CITY SKY/WX TMP DP RH WIND PRES REMARKS EDENTON CLOUDY N/A N/A N/A SE6 30.01S ELIZABETH CITY LGT RAIN 72 70 93 E5 30.01S KITTY HAWK RAIN 71 70 95 CALM 30.01S MANTEO NOT AVBL $$ NCZ045>047-081-094-103-104-301000- CENTRAL COAST CITY SKY/WX TMP DP RH WIND PRES REMARKS FRISCO HVY RAIN 73 72 96 S10 30.01F FOG $$ NCZ095-097-098-100-101-301000- SOUTHERN COAST CITY SKY/WX TMP DP RH WIND PRES REMARKS BEAUFORT LGT RAIN 73 70 90 S8G21 29.98S FOG CEDAR ISLAND NOT AVBL JACKSONVILLE MOCLDY 75 72 90 SE7 29.96S PINEY ISLAND NOT AVBL WILMINGTON CLOUDY 72 71 97 E5 29.95S $$ NCZ011>013-027>030-043-044-078>080-089-090>093-098-301000- COASTAL PLAIN CITY SKY/WX TMP DP RH WIND PRES REMARKS AHOSKIE CLOUDY 71 71 98 CALM 30.00S FOG CLINTON MOCLDY 72 72 100 CALM 29.97S ELIZABETHTOWN MOCLDY 71 71 100 CALM 29.95S FOG GOLDSBORO NOT AVBL GREENVILLE CLOUDY 72 72 100 SE3 30.00F HAVELOCK CLOUDY 72 70 93 SE5 29.99F KENANSVILLE LGT RAIN 71 71 98 CALM 29.98S KINSTON CLOUDY 73 71 95 CALM 29.99S NEW BERN LGT RAIN 72 69 90 S5 29.99S RICHLANDS CLOUDY 72 72 100 CALM 29.97S ROCKY MOUNT CLOUDY 71 71 100 CALM 29.99S WASHINGTON LGT RAIN 73 72 96 CALM 29.99S WHITEVILLE CLOUDY 71 70 97 NE6 29.93S $$ AMZ130-135-150-152-154-156-158-170-250-252-270-ANZ085-086-088-633-658-670-301000- MARINE OBSERVATIONS STATION/POSITION TIME TEMP WIND PRES WAVE SWELL AIR SEA DIR/SP/G HT/PER HT/PER (UTC) (F) (DEG/KT/KT) (MB) (FT/S) (FT/S) CHESAPEAKE LIGHT 0900 71 170/ 18/ 18 1016.6 64 E VA BEACH 0850 67 63 180/ 6/ 6 1016.7 5/ 6 5/ 6 DUCK 0800 66 58 140/ 18/ 19 1015.7 2 E DUCK 0811 62 N/A 3/ 8 OREGON INLET 0800 72 79 110/ 4/ 5 1016.3 13E OREGON INLT 0900 67 N/A 5/ 8 5/ 8 HATTERAS CG 0800 75 77 160/ 6/ 10 1015.7 DIAMOND BUOY 0850 76 81 170/ 14/ 17 1016.0 5/ 8 3/ 8 CAPE LOOKOUT 0900 74 210/ 5/ 7 1014.9 BEAUFORT LAB 0800 76 75 170/ 7/ 9 1014.6 30 SE NEW RVR IN 0825 75 N/A 6/ 6 27 SE WRIGHTSVLE 0808 78 76 180/ 12/ 16 1013.8 5 SE WRIGHTSVLE 0808 76 76 170/ 4/ 8 1014.8 225 S CAPE HAT 0850 75 76 120/ 12/ 14 1016.0 4/ 8 3/ 8 41 SE CHARLESTON 0850 74 77 210/ 14/ 17 1011.9 5/ 6 3/ 8 $$

USA.gov is the U.S. government's official web portal to all federal, state and local government web resources and services.